Aroma Park, IL

1:04 AM CST on February 14, 2016 (GMT -0600)
Greater Kankakee

Weather History for KIKK - September, 2014

Change the Weather History Date:

Sunday, September 14, 2014

  Actual Average Record
Temperature  
Mean Temperature 52 °F -  
Max Temperature 67 °F 78 °F 92 °F (1980)
Min Temperature 38 °F 54 °F 38 °F (2014)
Degree Days  
Heating Degree Days 13    
Growing Degree Days 2 (Base 50)    
Moisture  
Dew Point 44 °F    
Average Humidity 78    
Maximum Humidity 100    
Minimum Humidity 44    
Precipitation  
Precipitation 0.00 in - - ()
Sea Level Pressure  
Sea Level Pressure 30.27 in    
Wind  
Wind Speed 1 mph (SW)    
Max Wind Speed 8 mph    
Max Gust Speed 9 mph    
Visibility 8 miles    
Events Fog , Rain    
Averages and records for this station are not official NWS values.
T = Trace of Precipitation, MM = Missing Value Source: NWS Daily Summary

Daily Weather History Graph

Daily Weather History Graph

Search for Another Location

Airport or City:

Trip Planner

Search our weather history database for the weather conditions in past years. The results will help you decide how hot, cold, wet, or windy it might be!

Date:

Astronomy

Sep. 14, 2014 Rise Set
Actual Time 6:30 AM CDT 7:02 PM CDT
Civil Twilight 6:03 AM CDT 7:29 PM CDT
Nautical Twilight 5:30 AM CDT 8:02 PM CDT
Astronomical Twilight 4:57 AM CDT 8:35 PM CDT
Moon 10:51 PM CDT 12:39 PM CDT
Length of Visible Light 13h 26m
Length of Day
12h 31m
Waning Gibbous, 64% of the Moon is Illuminated
Sep 14
Waning Gibbous
Sep 15
Last Quarter
Sep 24
New
Oct 1
First Quarter
Oct 8
Full

Hourly Weather History & Observations

Time (CDT) Temp. Dew Point Humidity Pressure Visibility Wind Dir Wind Speed Gust Speed Precip Events Conditions
12:15 AM 42.6 °F 41.5 °F 96% 30.34 in 10.0 mi Calm Calm - N/A   Clear
12:35 AM 42.6 °F 41.9 °F 97% 30.34 in 1.5 mi Calm Calm - N/A   Mist
12:55 AM 42.3 °F 41.7 °F 98% 30.34 in 10.0 mi Calm Calm - N/A   Clear
1:15 AM 42.1 °F 41.7 °F 99% 30.34 in 7.0 mi Calm Calm - N/A   Clear
1:35 AM 41.2 °F 40.8 °F 99% 30.34 in 4.0 mi Calm Calm - N/A   Clear
1:55 AM 41.5 °F 41.4 °F 99% 30.34 in 5.0 mi Calm Calm - N/A   Clear
2:15 AM 40.1 °F 39.7 °F 99% 30.33 in 5.0 mi Calm Calm - N/A   Clear
2:35 AM 41.0 °F 40.5 °F 98% 30.33 in 5.0 mi Calm Calm - N/A   Clear
2:55 AM 40.1 °F 39.7 °F 99% 30.33 in 1.0 mi Calm Calm - N/A   Mist
3:15 AM 40.1 °F 39.6 °F 98% 30.33 in 2.0 mi Calm Calm - N/A   Clear
3:35 AM 40.1 °F 39.9 °F 99% 30.33 in 0.8 mi Calm Calm - N/A   Mist
3:55 AM 40.1 °F 39.7 °F 99% 30.33 in 2.5 mi Calm Calm - N/A   Mostly Cloudy
4:15 AM 40.1 °F 39.6 °F 98% 30.33 in 1.0 mi Calm Calm - N/A   Overcast
4:35 AM 39.2 °F 38.8 °F 99% 30.33 in 0.5 mi Calm Calm - N/A Fog Fog
4:55 AM 39.0 °F 38.8 °F 99% 30.33 in 0.2 mi Calm Calm - N/A Fog Fog
5:15 AM 38.8 °F 38.7 °F 99% 30.33 in 0.5 mi Calm Calm - N/A Fog Fog
5:35 AM 39.6 °F 39.4 °F 99% 30.34 in 7.0 mi Calm Calm - N/A   Overcast
5:55 AM 40.5 °F 40.3 °F 99% 30.34 in 4.0 mi Calm Calm - N/A   Overcast
6:15 AM 40.6 °F 40.5 °F 99% 30.33 in 7.0 mi Calm Calm - N/A   Overcast
6:35 AM 40.8 °F 40.6 °F 99% 30.33 in 4.0 mi Calm Calm - N/A   Overcast
6:55 AM 41.4 °F 41.2 °F 99% 30.33 in 5.0 mi Calm Calm - N/A   Overcast
7:15 AM 41.2 °F 41.0 °F 99% 30.33 in 5.0 mi Calm Calm - N/A   Overcast
7:35 AM 43.2 °F 42.8 °F 99% 30.33 in 5.0 mi Calm Calm - N/A   Overcast
7:55 AM 45.5 °F 45.5 °F 100% 30.34 in 7.0 mi Calm Calm - N/A   Overcast
8:15 AM 47.7 °F 47.1 °F 98% 30.34 in 10.0 mi Calm Calm - N/A   Overcast
8:35 AM 49.1 °F 48.0 °F 96% 30.34 in 10.0 mi Calm Calm - N/A   Scattered Clouds
8:55 AM 50.7 °F 48.2 °F 91% 30.34 in 10.0 mi Calm Calm - N/A   Clear
9:15 AM 53.4 °F 49.3 °F 86% 30.34 in 10.0 mi Calm Calm - N/A   Clear
9:35 AM 55.6 °F 48.6 °F 77% 30.34 in 10.0 mi Calm Calm - N/A   Clear
9:55 AM 58.3 °F 48.7 °F 71% 30.34 in 10.0 mi South 3.5 mph - N/A   Clear
10:15 AM 58.5 °F 42.6 °F 56% 30.33 in 10.0 mi South 4.6 mph - N/A   Clear
10:35 AM 58.3 °F 43.5 °F 58% 30.33 in 10.0 mi South 3.5 mph - N/A   Scattered Clouds
10:55 AM 61.2 °F 44.6 °F 54% 30.32 in 10.0 mi SSW 3.5 mph - N/A   Mostly Cloudy
11:15 AM 59.9 °F 42.8 °F 53% 30.32 in 10.0 mi Calm Calm - N/A   Scattered Clouds
11:35 AM 61.3 °F 43.7 °F 52% 30.31 in 10.0 mi Calm Calm - N/A   Mostly Cloudy
11:55 AM 62.6 °F 44.6 °F 52% 30.31 in 10.0 mi SE 4.6 mph - N/A   Scattered Clouds
12:15 PM 61.9 °F 43.0 °F 50% 30.30 in 10.0 mi Calm Calm - N/A   Clear
12:35 PM 63.1 °F 43.9 °F 49% 30.29 in 10.0 mi Calm Calm - N/A   Mostly Cloudy
12:55 PM 62.4 °F 43.3 °F 50% 30.29 in 10.0 mi WNW 5.8 mph - N/A   Scattered Clouds
1:15 PM 64.2 °F 44.2 °F 48% 30.28 in 10.0 mi WSW 4.6 mph - N/A   Clear
1:35 PM 64.4 °F 45.9 °F 51% 30.27 in 10.0 mi South 8.1 mph - N/A   Clear
1:55 PM 64.6 °F 44.2 °F 48% 30.26 in 10.0 mi Calm Calm - N/A   Clear
2:15 PM 64.8 °F 44.2 °F 47% 30.24 in 10.0 mi South 5.8 mph 9.2 mph N/A   Clear
2:35 PM 65.1 °F 44.6 °F 47% 30.24 in 10.0 mi SW 3.5 mph - N/A   Clear
2:55 PM 65.1 °F 42.6 °F 44% 30.23 in 10.0 mi WSW 5.8 mph - N/A   Clear
3:15 PM 65.3 °F 43.3 °F 45% 30.22 in 10.0 mi WSW 3.5 mph - N/A   Clear
3:35 PM 66.4 °F 44.6 °F 45% 30.22 in 10.0 mi SSW 5.8 mph - N/A   Clear
3:55 PM 66.6 °F 45.7 °F 47% 30.21 in 10.0 mi WSW 5.8 mph - N/A   Clear
4:15 PM 66.4 °F 45.3 °F 47% 30.21 in 10.0 mi SSW 6.9 mph - N/A   Clear
4:35 PM 66.9 °F 45.3 °F 46% 30.21 in 10.0 mi SSW 3.5 mph - N/A   Clear
4:55 PM 66.6 °F 44.6 °F 45% 30.21 in 10.0 mi West 6.9 mph - N/A   Clear
5:15 PM 66.2 °F 45.7 °F 48% 30.21 in 10.0 mi WSW 3.5 mph - N/A   Clear
5:35 PM 65.3 °F 44.6 °F 47% 30.20 in 10.0 mi WSW 4.6 mph - N/A   Clear
5:55 PM 64.2 °F 46.0 °F 52% 30.20 in 10.0 mi SSW 4.6 mph - N/A   Clear
6:15 PM 64.2 °F 48.6 °F 57% 30.20 in 10.0 mi South 3.5 mph - N/A   Clear
6:35 PM 62.6 °F 45.9 °F 54% 30.20 in 10.0 mi Calm Calm - N/A   Clear
6:55 PM 59.0 °F 47.5 °F 66% 30.19 in 10.0 mi Calm Calm - N/A   Clear
7:15 PM 56.5 °F 49.1 °F 76% 30.19 in 10.0 mi Calm Calm - N/A Rain Light Rain
7:35 PM 54.0 °F 50.2 °F 87% 30.19 in 10.0 mi Calm Calm - N/A   Clear
7:55 PM 53.6 °F 49.1 °F 85% 30.19 in 10.0 mi Calm Calm - N/A   Clear
8:15 PM 51.8 °F 49.5 °F 92% 30.19 in 10.0 mi Calm Calm - N/A   Clear
8:35 PM 51.3 °F 49.3 °F 93% 30.19 in 10.0 mi Calm Calm - N/A   Clear
8:55 PM 50.9 °F 49.3 °F 94% 30.20 in 10.0 mi Calm Calm - N/A   Clear
9:15 PM 50.2 °F 48.7 °F 95% 30.20 in 10.0 mi Calm Calm - N/A   Clear
9:35 PM 49.6 °F 48.4 °F 95% 30.19 in 10.0 mi Calm Calm - N/A   Clear
9:55 PM 49.1 °F 48.2 °F 97% 30.19 in 10.0 mi Calm Calm - N/A   Clear
10:15 PM 49.1 °F 48.2 °F 97% 30.19 in 10.0 mi Calm Calm - N/A   Clear
10:35 PM 48.2 °F 47.1 °F 96% 30.19 in 10.0 mi Calm Calm - N/A   Clear
10:55 PM 48.2 °F 48.2 °F 100% 30.19 in 10.0 mi Calm Calm - N/A   Clear
11:15 PM 47.7 °F 46.6 °F 96% 30.19 in 10.0 mi Calm Calm - N/A   Clear
11:35 PM 47.5 °F 46.8 °F 97% 30.19 in 10.0 mi Calm Calm - N/A   Clear
11:55 PM 47.3 °F 46.4 °F 97% 30.19 in 10.0 mi Calm Calm - N/A   Clear